Stations météo

réclame
Mon MeteoGroup
Jerez de los Caballeros, Espagne (8337): Température de l'air & dewpoint: 05.12.2017 04:00:00 - 11.12.2017 04:00:00 (CET)Jerez de los Caballeros, Espagne (8337): Vitesse du vent & gusts: 05.12.2017 04:00:00 - 11.12.2017 04:00:00 (CET)Jerez de los Caballeros, Espagne (8337): Direction du vent: 05.12.2017 04:00:00 - 11.12.2017 04:00:00 (CET)Jerez de los Caballeros, Espagne (8337): reduced air pressure: 05.12.2017 04:00:00 - 11.12.2017 04:00:00 (CET)Jerez de los Caballeros, Espagne (8337): visibility: 05.12.2017 04:00:00 - 11.12.2017 04:00:00 (CET)Jerez de los Caballeros, Espagne (8337): Ensoleillement: 05.12.2017 04:00:00 - 11.12.2017 04:00:00 (CET)Jerez de los Caballeros, Espagne (8337): Quantités de précipitations: 05.12.2017 04:00:00 - 11.12.2017 04:00:00 (CET)
Date & Time tt [°C] td [°C] ff [km/h] ff [knt] fx [km/h] fx [knt] dd ppp [hPa] vv [km] sd [min] rr [mm]
11.12.2017 04:00:00 10,7 8,9 39 21 95 51 WSW 998,9 4,2 0 6,4
11.12.2017 03:00:00 13,3 11,0 73 39 104 56 SSW 996,4 2,3 0 3,2
11.12.2017 02:00:00 12,7 10,8 50 27 79 42 SSW 999,8 2,6 0 4,0
11.12.2017 01:00:00 12,7 10,6 49 27 91 49 SSW 1002,3 3,8 0 -
11.12.2017 00:00:00 13,0 10,4 56 30 78 42 SW 1004,0 10 0 0,2
10.12.2017 23:00:00 13,0 10,2 47 26 67 36 SW 1005,9 20 0 0,4
10.12.2017 22:00:00 12,1 10,3 39 21 59 32 SW 1008,2 6 0 1,0
10.12.2017 21:00:00 12,9 9,6 37 20 61 33 SW 1009,3 20 0 0,2
10.12.2017 20:00:00 12,8 9,7 40 22 66 36 SW 1011,2 8 0 0,0
10.12.2017 19:00:00 13,8 8,8 36 20 53 29 SW 1012,3 20 0 -
10.12.2017 18:00:00 13,9 9,3 29 16 47 25 SW 1013,8 20 0 0,0
10.12.2017 17:00:00 14,0 9,2 30 16 50 27 SW 1014,7 20 0 0,0
10.12.2017 16:00:00 14,1 9,9 34 18 53 28 SW 1015,7 20 0 0,0
10.12.2017 15:00:00 13,5 11,2 29 16 44 24 SW 1017,2 20 0 0,2
10.12.2017 14:00:00 12,7 11,2 29 16 51 27 SW 1019,1 4,7 0 0,8
10.12.2017 13:00:00 12,5 11,1 37 20 50 27 SW 1020,6 3,8 0 -
10.12.2017 12:00:00 12,4 10,8 25 14 37 20 SW 1021,9 2,1 0 0,4
10.12.2017 11:00:00 12,2 10,4 26 14 38 20 SW 1022,4 20 0 0,0
10.12.2017 10:00:00 11,5 9,9 21 11 30 16 SW 1023,3 6 0 0,0
10.12.2017 09:00:00 11,4 9,4 16 9 24 13 SW 1024,1 18 0 0,0
10.12.2017 08:00:00 11,2 9,3 16 9 29 15 WSW 1024,2 19 0 0,0
10.12.2017 07:00:00 11,3 9,7 17 9 24 13 WSW 1024,2 16 0 -
10.12.2017 06:00:00 11,3 9,4 13 7 29 16 SW 1024,6 7 0 0,0
10.12.2017 05:00:00 11,3 9,7 21 11 31 17 SW 1025,4 16 0 0,0
10.12.2017 04:00:00 11,9 9,8 19 10 28 15 SW 1025,9 20 0 0,0
10.12.2017 03:00:00 12,3 10,5 18 10 25 13 WSW 1026,4 17 0 0,0
10.12.2017 02:00:00 12,4 10,6 16 8 33 18 WSW 1026,8 14 0 0,0
10.12.2017 01:00:00 12,4 10,8 13 7 24 13 SW 1027,4 17 0 -
10.12.2017 00:00:00 12,2 10,4 15 8 24 13 WSW 1027,8 14 0 0,0
09.12.2017 23:00:00 12,5 10,4 14 7 24 13 WSW 1027,8 18 0 0,0
09.12.2017 22:00:00 13,2 10,5 10 5 16 9 SW 1027,7 20 0 0,0
09.12.2017 21:00:00 13,8 10,8 12 6 19 10 WSW 1027,5 20 0 0,0
09.12.2017 20:00:00 13,9 10,3 15 8 27 15 WSW 1027,1 20 0 0,0
09.12.2017 19:00:00 14,3 9,9 15 8 27 15 WSW 1026,6 20 0 -
09.12.2017 18:00:00 15,5 9,6 19 10 31 17 WSW 1026,4 20 0 0,0
09.12.2017 17:00:00 15,7 10,0 16 9 35 19 W 1026,0 20 6 0,0
09.12.2017 16:00:00 16,3 10,2 23 13 38 21 WSW 1026,0 20 28 0,0
09.12.2017 15:00:00 16,4 10,9 21 11 32 18 WSW 1026,4 20 0 0,0
09.12.2017 14:00:00 16,5 10,3 22 12 33 18 W 1026,8 20 7 0,0
09.12.2017 13:00:00 15,8 10,3 20 11 34 18 WSW 1027,6 20 35 -
09.12.2017 12:00:00 16,0 10,8 21 12 34 18 W 1028,2 20 60 0,0
09.12.2017 11:00:00 14,5 10,9 20 11 28 15 W 1028,1 20 27 0,0
09.12.2017 10:00:00 13,6 11,3 9 5 25 13 WSW 1028,2 20 0 0,0
09.12.2017 09:00:00 13,1 11,1 12 6 18 10 W 1028,1 15 0 0,0
09.12.2017 08:00:00 13,0 11,1 13 7 19 10 W 1027,8 20 0 0,0
09.12.2017 07:00:00 12,6 11,0 13 7 23 12 W 1027,6 20 0 -
09.12.2017 06:00:00 12,3 10,8 10 5 20 11 SW 1027,7 5 0 0,0
09.12.2017 05:00:00 12,5 10,9 13 7 26 14 WSW 1028,1 8 0 0,0
09.12.2017 04:00:00 12,4 10,8 19 11 27 14 W 1028,4 12 0 0,0
09.12.2017 03:00:00 12,4 11,0 18 10 26 14 W 1028,3 20 0 0,0
09.12.2017 02:00:00 12,1 10,6 14 8 26 14 WSW 1028,6 5 0 0,0
09.12.2017 01:00:00 12,2 10,6 19 10 26 14 W 1028,8 8 0 -
09.12.2017 00:00:00 12,3 10,9 8 4 16 9 WSW 1029,2 6 0 0,0
08.12.2017 23:00:00 12,5 10,8 11 6 19 10 SW 1029,0 1,4 0 0,0
08.12.2017 22:00:00 12,8 10,5 14 7 19 11 WSW 1029,3 9 0 0,0
08.12.2017 21:00:00 13,1 9,6 9 5 18 10 WSW 1029,3 20 0 0,0
08.12.2017 20:00:00 13,4 8,7 10 5 21 12 W 1029,2 20 0 0,0
08.12.2017 19:00:00 13,8 8,7 16 8 19 11 W 1028,7 20 0 -
08.12.2017 18:00:00 14,5 8,3 10 5 22 12 WSW 1028,5 20 0 0,0
08.12.2017 17:00:00 15,1 7,6 16 9 23 12 W 1028,4 20 1 0,0
08.12.2017 16:00:00 15,8 6,8 20 11 26 14 WSW 1028,0 20 10 0,0
08.12.2017 15:00:00 16,9 7,3 18 10 24 13 WSW 1028,3 20 50 0,0
08.12.2017 14:00:00 16,2 3,2 10 5 16 8 SSW 1029,0 20 60 0,0
08.12.2017 13:00:00 13,4 0,6 7 4 11 6 SW 1030,1 20 60 -
08.12.2017 12:00:00 9,4 1,5 2 1 6 3 NNE 1031,8 16 60 0,0
08.12.2017 11:00:00 6,2 0,9 2 1 5 3 ESE 1032,8 12 60 0,0
08.12.2017 10:00:00 1,8 -0,7 4 2 6 4 ENE 1033,1 15 38 0,0
08.12.2017 09:00:00 1,7 -1,4 4 2 9 5 NE 1032,7 19 15 0,0
08.12.2017 08:00:00 0,6 -1,7 4 2 7 4 SW 1032,7 14 0 0,0
08.12.2017 07:00:00 0,7 -1,4 3 1 7 4 S 1032,2 15 0 -
08.12.2017 06:00:00 0,9 -2,0 5 3 11 6 E 1032,2 17 0 0,0
08.12.2017 05:00:00 1,5 -1,2 8 4 11 6 ENE 1032,5 20 0 0,0
08.12.2017 04:00:00 2,2 -1,4 3 2 14 7 NE 1032,6 17 0 0,0
08.12.2017 03:00:00 2,1 -1,2 9 5 10 6 ENE 1032,4 20 0 0,0
08.12.2017 02:00:00 3,1 -1,2 4 2 11 6 SSW 1032,5 20 0 0,0
08.12.2017 01:00:00 3,8 -1,0 7 4 11 6 ESE 1032,8 20 0 -
08.12.2017 00:00:00 4,6 -0,7 4 2 9 5 SE 1033,2 20 0 0,0
07.12.2017 23:00:00 5,9 -0,7 3 2 8 4 SSE 1032,4 20 0 0,0
07.12.2017 22:00:00 6,9 -0,5 5 3 9 5 SE 1032,4 20 0 0,0
07.12.2017 21:00:00 8,9 -0,5 6 3 9 5 ENE 1031,7 20 0 0,0
07.12.2017 20:00:00 9,3 -1,0 6 3 11 6 NE 1031,6 20 0 0,0
07.12.2017 19:00:00 11,9 0,4 11 6 16 8 WNW 1030,6 20 0 -
07.12.2017 18:00:00 14,7 -2,2 5 3 10 5 WSW 1029,7 20 57 0,0
07.12.2017 17:00:00 16,3 -3,3 6 3 9 5 S 1029,7 20 60 0,0
07.12.2017 16:00:00 16,9 -3,3 4 2 10 6 SSW 1029,5 20 60 0,0
07.12.2017 15:00:00 16,5 -3,6 3 2 9 5 ESE 1029,7 20 60 0,0
07.12.2017 14:00:00 15,0 -2,0 3 2 10 5 E 1030,4 20 60 0,0
07.12.2017 13:00:00 12,4 1,1 4 2 9 5 E 1031,9 20 60 -
07.12.2017 12:00:00 10,0 0,9 5 3 11 6 E 1032,8 19 60 0,0
07.12.2017 11:00:00 4,2 -0,5 8 4 10 6 ENE 1033,8 20 60 0,0
07.12.2017 10:00:00 2,1 -1,2 4 2 9 5 E 1034,2 20 60 0,0
07.12.2017 09:00:00 0,7 -1,4 5 3 11 6 E 1033,9 20 19 0,0
07.12.2017 08:00:00 -0,2 -2,2 3 2 8 5 S 1033,6 16 0 0,0
07.12.2017 07:00:00 0,3 -2,0 3 2 11 6 NNW 1032,9 16 0 -
07.12.2017 06:00:00 0,5 -2,0 9 5 11 6 E 1032,9 20 0 0,0
07.12.2017 05:00:00 0,0 -2,5 6 3 11 6 E 1033,3 14 0 0,0
07.12.2017 04:00:00 0,9 -2,0 9 5 17 9 E 1033,3 19 0 0,0
07.12.2017 03:00:00 1,2 -1,4 8 4 10 5 ENE 1033,3 20 0 0,0
07.12.2017 02:00:00 2,0 -1,2 4 2 7 4 S 1033,2 20 0 0,0
07.12.2017 01:00:00 3,2 -1,2 4 2 8 5 E 1033,5 20 0 -
07.12.2017 00:00:00 3,8 -1,2 5 3 12 6 E 1033,5 20 0 0,0
06.12.2017 23:00:00 4,8 -1,0 6 3 10 6 ESE 1033,3 20 0 0,0
06.12.2017 22:00:00 7,4 -0,7 7 4 10 5 E 1032,6 20 0 0,0
06.12.2017 21:00:00 7,7 -0,7 5 3 8 4 ESE 1032,7 20 0 0,0
06.12.2017 20:00:00 10,4 0,6 5 3 13 7 S 1031,7 20 0 0,0
06.12.2017 19:00:00 12,3 -0,5 5 3 8 4 E 1030,9 20 0 -
06.12.2017 18:00:00 14,0 -1,7 7 4 11 6 E 1030,5 20 57 0,0
06.12.2017 17:00:00 15,2 -2,7 8 5 10 6 E 1030,4 20 60 0,0
06.12.2017 16:00:00 15,9 0,0 5 3 7 4 ESE 1030,4 20 60 0,0
06.12.2017 15:00:00 15,2 1,3 4 2 9 5 E 1030,7 20 60 0,0
06.12.2017 14:00:00 14,3 1,9 4 2 10 6 ESE 1031,5 20 60 0,0
06.12.2017 13:00:00 11,7 1,9 5 3 12 7 ESE 1032,8 20 60 -
06.12.2017 12:00:00 7,8 0,6 8 4 11 6 E 1034,3 20 60 0,0
06.12.2017 11:00:00 3,5 -1,0 8 4 11 6 E 1035,3 20 60 0,0
06.12.2017 10:00:00 1,4 -2,2 4 2 10 6 E 1035,4 20 60 0,0
06.12.2017 09:00:00 -1,0 -3,3 8 4 11 6 E 1035,7 20 20 0,0
06.12.2017 08:00:00 -1,5 -3,6 4 2 10 5 ESE 1035,7 20 0 0,0
06.12.2017 07:00:00 -1,4 -3,6 5 3 14 8 E 1035,4 20 0 -
06.12.2017 06:00:00 -0,9 -3,6 4 2 10 5 SE 1035,3 20 0 0,0
06.12.2017 05:00:00 -0,2 -3,3 3 2 8 5 SSE 1035,3 20 0 0,0
06.12.2017 04:00:00 0,2 -3,3 6 4 19 10 E 1035,5 20 0 0,0
06.12.2017 03:00:00 0,3 -3,0 11 6 14 7 E 1035,4 20 0 0,0
06.12.2017 02:00:00 2,0 -2,7 4 2 14 8 S 1035,2 20 0 0,0
06.12.2017 01:00:00 2,1 -2,2 13 7 17 9 ENE 1035,4 20 0 -
06.12.2017 00:00:00 3,6 -2,5 8 4 13 7 E 1035,7 20 0 0,0
05.12.2017 23:00:00 6,6 -2,2 3 2 16 8 ESE 1035,1 20 0 0,0
05.12.2017 22:00:00 7,7 -2,2 12 6 16 9 ENE 1034,5 20 0 0,0
05.12.2017 21:00:00 8,3 -1,7 10 6 21 11 E 1034,1 20 0 0,0
05.12.2017 20:00:00 8,9 -1,7 14 7 20 11 ENE 1033,6 20 0 0,0
05.12.2017 19:00:00 11,1 -3,6 17 9 22 12 NE 1033,1 20 0 -
05.12.2017 18:00:00 13,0 -4,2 13 7 16 8 ENE 1032,5 20 57 0,0
05.12.2017 17:00:00 14,4 -3,6 10 6 14 8 NE 1032,3 20 60 0,0
05.12.2017 16:00:00 15,1 -3,3 9 5 17 9 NNE 1032,1 20 60 0,0
05.12.2017 15:00:00 15,1 -2,0 8 4 19 11 E 1032,5 20 60 0,0
05.12.2017 14:00:00 13,6 -1,2 13 7 23 12 ENE 1033,3 20 60 0,0
05.12.2017 13:00:00 12,2 -0,7 17 9 23 12 ENE 1034,1 20 60 -
05.12.2017 12:00:00 9,8 -1,2 19 10 31 17 ENE 1035,1 20 60 0,0
05.12.2017 11:00:00 7,2 -2,0 22 12 27 15 NE 1035,6 15 60 0,0
05.12.2017 10:00:00 2,2 -2,0 18 10 23 13 ENE 1036,0 20 60 0,0
05.12.2017 09:00:00 1,3 -2,7 10 6 18 10 ENE 1036,1 20 22 0,0
05.12.2017 08:00:00 -0,9 -3,9 10 5 16 9 E 1035,9 20 0 0,0
05.12.2017 07:00:00 0,2 -3,6 9 5 16 8 E 1035,2 19 0 -
05.12.2017 06:00:00 1,3 -2,7 12 7 16 9 E 1035,0 13 0 0,0
05.12.2017 05:00:00 1,2 -3,0 8 4 16 9 E 1035,2 20 0 0,0
05.12.2017 04:00:00 2,1 -2,7 9 5 13 7 E 1035,0 20 0 0,0

tt = Température de l'air
td = dewpoint
ff = Vitesse du vent
fx = gusts
dd = Direction du vent
ppp = reduced air pressure
vv = visibility
sd = Ensoleillement
rr = Quantités de précipitations

stations d'obs. à proximité